�������l�o���
Date,Time,MP-1(��Sv/h),MP-2(��Sv/h),MP-3(��Sv/h),MP-4(��Sv/h),MP-5(��Sv/h),MP-6(��Sv/h),MP-7(��Sv/h),MP-8(��Sv/h),����,����(m/s),���J
2017/08/09,00:00,0.941,1.467,0.977,1.769,1.199,0.515,0.937,0.869,���k��,6.5,��
2017/08/09,00:10,0.939,1.469,0.978,1.770,1.199,0.514,0.938,0.868,���k��,6.2,��
2017/08/09,00:20,0.942,1.471,0.975,1.767,1.198,0.516,0.936,0.869,�k��,5.4,��
2017/08/09,00:30,0.939,1.467,0.977,1.768,1.198,0.515,0.939,0.868,�k��,5.0,��
2017/08/09,00:40,0.944,1.468,0.976,1.772,1.195,0.515,0.941,0.869,�k��,5.4,��
2017/08/09,00:50,0.942,1.467,0.978,1.769,1.199,0.516,0.939,0.867,�k��,5.1,��
2017/08/09,01:00,0.939,1.467,0.977,1.768,1.199,0.516,0.938,0.869,���k��,6.6,��
2017/08/09,01:10,0.940,1.468,0.978,1.770,1.198,0.515,0.940,0.868,�k��,5.5,��
2017/08/09,01:20,0.941,1.469,0.979,1.768,1.199,0.514,0.938,0.867,�k��,5.3,��
2017/08/09,01:30,0.941,1.468,0.977,1.769,1.199,0.516,0.940,0.869,�k�k��,3.2,��
2017/08/09,01:40,0.941,1.468,0.975,1.769,1.200,0.516,0.940,0.869,�k�k��,3.5,��
2017/08/09,01:50,0.940,1.467,0.975,1.768,1.201,0.514,0.940,0.870,�k�k��,4.2,�L
2017/08/09,02:00,0.942,1.469,0.978,1.768,1.201,0.515,0.942,0.870,�k�k��,3.9,��
2017/08/09,02:10,0.943,1.470,0.978,1.768,1.198,0.515,0.942,0.869,�k,4.3,��
2017/08/09,02:20,0.942,1.472,0.975,1.771,1.200,0.514,0.940,0.869,�k,3.7,��
2017/08/09,02:30,0.943,1.470,0.977,1.768,1.202,0.514,0.940,0.870,�k�k��,3.6,��
2017/08/09,02:40,0.942,1.470,0.978,1.769,1.198,0.515,0.941,0.870,�k,3.6,�L
2017/08/09,02:50,0.942,1.465,0.977,1.768,1.194,0.513,0.938,0.870,�k�k��,4.4,�L
2017/08/09,03:00,0.943,1.466,0.974,1.764,1.190,0.512,0.939,0.869,�k�k��,3.8,�L
2017/08/09,03:10,0.941,1.470,0.973,1.762,1.190,0.513,0.938,0.868,�k�k��,3.7,�L
2017/08/09,03:20,0.943,1.467,0.974,1.766,1.192,0.514,0.940,0.868,�k�k��,4.5,�L
2017/08/09,03:30,0.942,1.465,0.974,1.765,1.191,0.512,0.940,0.868,�k�k��,4.5,�L
2017/08/09,03:40,0.943,1.462,0.973,1.765,1.190,0.513,0.937,0.869,�k�k��,4.3,��
2017/08/09,03:50,0.943,1.465,0.975,1.764,1.189,0.513,0.940,0.867,�k�k��,3.9,�L
2017/08/09,04:00,0.943,1.465,0.976,1.764,1.191,0.511,0.936,0.869,�k��,4.2,�L
2017/08/09,04:10,0.944,1.467,0.977,1.765,1.192,0.512,0.939,0.870,�k�k��,3.6,�L
2017/08/09,04:20,0.942,1.466,0.972,1.763,1.192,0.513,0.939,0.871,�k�k��,4.3,�L
2017/08/09,04:30,0.942,1.463,0.971,1.765,1.190,0.511,0.939,0.869,�k�k��,5.9,�L
2017/08/09,04:40,0.939,1.462,0.972,1.763,1.189,0.513,0.937,0.869,�k�k��,5.0,�L
2017/08/09,04:50,0.941,1.462,0.972,1.761,1.192,0.511,0.938,0.869,�k�k��,5.8,�L
2017/08/09,05:00,0.940,1.459,0.972,1.762,1.190,0.513,0.937,0.868,�k�k��,8.3,�L
2017/08/09,05:10,0.938,1.459,0.970,1.762,1.191,0.511,0.939,0.868,�k�k��,8.8,�L
2017/08/09,05:20,0.936,1.459,0.970,1.761,1.189,0.510,0.938,0.868,�k�k��,9.3,�L
2017/08/09,05:30,0.936,1.455,0.971,1.761,1.190,0.511,0.933,0.866,�k�k��,8.1,�L
2017/08/09,05:40,0.935,1.456,0.972,1.760,1.187,0.510,0.935,0.867,�k�k��,8.3,�L
2017/08/09,05:50,0.933,1.456,0.968,1.759,1.188,0.511,0.936,0.867,�k�k��,9.9,�L
2017/08/09,06:00,0.933,1.454,0.968,1.753,1.185,0.511,0.937,0.866,�k�k��,9.5,�L
2017/08/09,06:10,0.932,1.453,0.968,1.753,1.186,0.509,0.935,0.865,�k�k��,9.2,�L
2017/08/09,06:20,0.935,1.454,0.963,1.750,1.183,0.512,0.934,0.862,�k�k��,8.7,�L
2017/08/09,06:30,0.934,1.451,0.967,1.750,1.185,0.511,0.934,0.862,�k�k��,8.7,�L
2017/08/09,06:40,0.936,1.454,0.969,1.750,1.185,0.510,0.933,0.864,�k�k��,8.4,�L
2017/08/09,06:50,0.935,1.453,0.967,1.751,1.186,0.511,0.936,0.864,�k�k��,8.6,�L
2017/08/09,07:00,0.934,1.455,0.967,1.752,1.189,0.510,0.934,0.864,�k�k��,8.6,�L
2017/08/09,07:10,0.934,1.454,0.969,1.753,1.187,0.509,0.932,0.863,�k�k��,7.9,�L
2017/08/09,07:20,0.934,1.454,0.969,1.757,1.188,0.509,0.935,0.864,�k�k��,8.0,�L
2017/08/09,07:30,0.932,1.457,0.969,1.758,1.190,0.511,0.935,0.865,�k�k��,8.0,�L
2017/08/09,07:40,0.937,1.457,0.972,1.757,1.189,0.511,0.935,0.865,�k�k��,8.7,�L
2017/08/09,07:50,0.935,1.456,0.972,1.757,1.190,0.511,0.935,0.865,�k�k��,7.4,�L
2017/08/09,08:00,0.934,1.454,0.972,1.759,1.191,0.509,0.936,0.864,�k�k��,6.6,�L
2017/08/09,08:10,0.936,1.455,0.971,1.758,1.193,0.509,0.936,0.865,�k�k��,6.4,�L
2017/08/09,08:20,0.933,1.456,0.974,1.756,1.190,0.509,0.936,0.865,�k�k��,7.4,�L
2017/08/09,08:30,0.936,1.454,0.972,1.757,1.192,0.509,0.936,0.865,�k�k��,7.1,�L
2017/08/09,08:40,0.935,1.457,0.974,1.760,1.193,0.510,0.936,0.865,�k�k��,6.8,�L
2017/08/09,08:50,0.935,1.453,0.972,1.758,1.194,0.510,0.937,0.866,�k�k��,6.9,�L
2017/08/09,09:00,0.936,1.457,0.972,1.761,1.192,0.509,0.937,0.864,�k�k��,7.5,�L
2017/08/09,09:10,0.936,1.454,0.972,1.760,1.194,0.511,0.935,0.866,�k�k��,7.6,�L
2017/08/09,09:20,0.933,1.459,0.972,1.760,1.192,0.510,0.936,0.866,�k�k��,6.8,�L
2017/08/09,09:30,0.935,1.458,0.971,1.763,1.192,0.511,0.937,0.863,�k�k��,6.1,�L
2017/08/09,09:40,0.937,1.457,0.974,1.761,1.194,0.509,0.937,0.865,�k�k��,5.6,�L
2017/08/09,09:50,0.937,1.456,0.974,1.764,1.194,0.511,0.937,0.866,�k�k��,7.2,�L
2017/08/09,10:00,0.937,1.459,0.974,1.765,1.192,0.510,0.940,0.867,�k�k��,7.1,�L
2017/08/09,10:10,0.938,1.459,0.975,1.763,1.194,0.510,0.938,0.865,�k,6.1,��
2017/08/09,10:20,0.939,1.459,0.974,1.761,1.196,0.510,0.938,0.866,�k�k��,6.3,�L
2017/08/09,10:30,0.937,1.459,0.977,1.765,1.199,0.512,0.938,0.867,�k�k��,5.8,��
2017/08/09,10:40,0.938,1.460,0.964,1.763,1.198,0.511,0.938,0.868,�k�k��,6.3,��
2017/08/09,10:50,0.939,1.461,0.977,1.768,1.196,0.513,0.940,0.868,�k�k��,6.5,��
2017/08/09,11:00,0.939,1.464,0.977,1.766,1.199,0.510,0.939,0.869,�k,6.3,��
2017/08/09,11:10,0.938,1.464,0.977,1.767,1.199,0.513,0.937,0.868,�k,7.0,�L
2017/08/09,11:20,0.941,1.465,0.963,1.765,1.202,0.511,0.938,0.868,�k,7.1,�L
2017/08/09,11:30,0.942,1.467,0.964,1.768,1.199,0.513,0.939,0.867,�k,7.3,��
2017/08/09,11:40,0.941,1.468,0.965,1.764,1.200,0.513,0.940,0.868,�k�k��,7.7,��
2017/08/09,11:50,0.943,1.470,0.964,1.771,1.201,0.513,0.940,0.868,�k�k��,7.9,��
2017/08/09,12:00,0.944,1.469,0.963,1.769,1.203,0.513,0.943,0.868,�k�k��,6.6,��
2017/08/09,12:10,0.944,1.471,0.966,1.770,1.202,0.512,0.944,0.868,�k,7.4,��
2017/08/09,12:20,0.945,1.470,0.968,1.768,1.201,0.514,0.943,0.868,�k�k��,7.4,��
2017/08/09,12:30,0.945,1.474,0.978,1.771,1.207,0.513,0.944,0.870,�k,6.5,��
2017/08/09,12:40,0.947,1.475,0.975,1.769,1.206,0.514,0.943,0.869,�k�k��,7.7,��
2017/08/09,12:50,0.948,1.475,0.968,1.769,1.204,0.513,0.943,0.870,�k,8.8,��
2017/08/09,13:00,0.947,1.475,0.968,1.769,1.208,0.516,0.944,0.870,�k,7.6,��
2017/08/09,13:10,0.948,1.475,0.970,1.774,1.207,0.515,0.943,0.868,�k,7.5,��
2017/08/09,13:20,0.947,1.475,0.967,1.773,1.206,0.516,0.943,0.870,�k,8.5,��
2017/08/09,13:30,0.949,1.476,0.966,1.772,1.208,0.515,0.943,0.871,�k,8.4,��
2017/08/09,13:40,0.947,1.478,0.980,1.772,1.209,0.513,0.944,0.868,�k,7.7,��
2017/08/09,13:50,0.946,1.476,0.982,1.773,1.206,0.514,0.945,0.869,�k,7.7,��
2017/08/09,14:00,0.947,1.475,0.980,1.773,1.207,0.514,0.943,0.872,�k,7.3,��
2017/08/09,14:10,0.949,1.477,0.982,1.775,1.209,0.513,0.943,0.869,�k,8.0,��
2017/08/09,14:20,0.946,1.478,0.983,1.776,1.210,0.514,0.943,0.868,�k,7.2,��
2017/08/09,14:30,0.949,1.480,0.982,1.779,1.209,0.514,0.943,0.869,�k�k��,6.0,�L
2017/08/09,14:40,0.947,1.478,0.982,1.779,1.211,0.512,0.943,0.870,�k,7.3,�L
2017/08/09,14:50,0.949,1.476,0.981,1.779,1.212,0.515,0.944,0.868,�k,7.6,��
2017/08/09,15:00,0.949,1.477,0.983,1.779,1.210,0.513,0.945,0.871,�k,6.9,�L
2017/08/09,15:10,0.952,1.482,0.981,1.778,1.211,0.515,0.944,0.870,�k,6.4,�L
2017/08/09,15:20,0.952,1.481,0.982,1.778,1.212,0.514,0.943,0.869,�k,5.7,�L
2017/08/09,15:30,0.951,1.480,0.982,1.778,1.212,0.513,0.944,0.870,�k,5.5,�L
2017/08/09,15:40,0.949,1.477,0.982,1.780,1.217,0.514,0.942,0.869,�k,7.1,�L
2017/08/09,15:50,0.950,1.475,0.984,1.779,1.213,0.515,0.944,0.868,�k,6.3,�L
2017/08/09,16:00,0.949,1.478,0.982,1.778,1.214,0.515,0.944,0.871,�k,6.4,�L
2017/08/09,16:10,0.950,1.480,0.983,1.779,1.215,0.514,0.947,0.869,�k,7.8,�L
2017/08/09,16:20,0.952,1.482,0.981,1.783,1.214,0.515,0.947,0.870,�k,7.3,�L
2017/08/09,16:30,0.951,1.484,0.985,1.780,1.214,0.514,0.946,0.871,�k,7.1,�L
2017/08/09,16:40,0.950,1.480,0.986,1.783,1.212,0.514,0.946,0.869,�k,7.2,�L
2017/08/09,16:50,0.949,1.484,0.982,1.779,1.213,0.513,0.946,0.871,�k,6.5,��
2017/08/09,17:00,0.950,1.482,0.983,1.781,1.215,0.514,0.946,0.873,�k,6.3,��
2017/08/09,17:10,0.948,1.486,0.985,1.778,1.215,0.512,0.946,0.873,�k,6.6,��
2017/08/09,17:20,0.949,1.486,0.986,1.781,1.215,0.514,0.943,0.871,�k,6.4,��
2017/08/09,17:30,0.949,1.483,0.987,1.782,1.211,0.514,0.946,0.873,�k,5.8,��
2017/08/09,17:40,0.950,1.483,0.985,1.781,1.212,0.513,0.945,0.872,�k,5.3,��
2017/08/09,17:50,0.948,1.486,0.985,1.779,1.215,0.514,0.946,0.873,�k,5.5,��
2017/08/09,18:00,0.947,1.485,0.987,1.778,1.215,0.514,0.944,0.872,�k,6.8,��
2017/08/09,18:10,0.947,1.485,0.986,1.778,1.216,0.513,0.943,0.874,�k,6.2,��
2017/08/09,18:20,0.948,1.485,0.983,1.780,1.215,0.513,0.946,0.874,�k,6.3,�L
2017/08/09,18:30,0.948,1.484,0.985,1.783,1.214,0.516,0.945,0.873,�k,6.6,�L
2017/08/09,18:40,0.948,1.487,0.983,1.779,1.217,0.512,0.944,0.873,�k,6.6,��
2017/08/09,18:50,0.948,1.486,0.985,1.780,1.216,0.514,0.945,0.874,�k,7.3,��
2017/08/09,19:00,0.949,1.483,0.985,1.780,1.215,0.513,0.946,0.874,�k,7.5,��
2017/08/09,19:10,0.946,1.484,0.986,1.780,1.213,0.515,0.945,0.873,�k,7.5,��
2017/08/09,19:20,0.949,1.486,0.985,1.781,1.216,0.515,0.946,0.873,�k,6.2,��
2017/08/09,19:30,0.947,1.485,0.985,1.779,1.214,0.513,0.944,0.872,�k,5.6,��
2017/08/09,19:40,0.949,1.486,0.985,1.780,1.215,0.513,0.945,0.872,�k�k��,5.8,��
2017/08/09,19:50,0.949,1.483,0.983,1.783,1.216,0.514,0.945,0.871,�k�k��,5.4,��
2017/08/09,20:00,0.949,1.489,0.985,1.782,1.216,0.513,0.944,0.875,�k�k��,3.1,��
2017/08/09,20:10,0.947,1.487,0.985,1.781,1.216,0.514,0.945,0.874,�k�k��,3.1,��
2017/08/09,20:20,0.950,1.485,0.982,1.782,1.216,0.514,0.944,0.873,�k�k��,2.6,��
2017/08/09,20:30,0.949,1.486,0.985,1.781,1.215,0.513,0.945,0.873,�k,2.8,��
2017/08/09,20:40,0.947,1.485,0.986,1.781,1.217,0.514,0.944,0.873,�k,3.3,��
2017/08/09,20:50,0.949,1.483,0.985,1.781,1.217,0.513,0.946,0.872,�k,3.7,��
2017/08/09,21:00,0.949,1.484,0.984,1.780,1.215,0.513,0.946,0.873,�k,4.9,��
2017/08/09,21:10,0.947,1.484,0.986,1.778,1.216,0.514,0.946,0.872,�k,4.5,��
2017/08/09,21:20,0.947,1.486,0.984,1.784,1.215,0.513,0.945,0.871,�k,4.1,��
2017/08/09,21:30,0.949,1.488,0.983,1.782,1.212,0.514,0.944,0.872,�k,4.8,��
2017/08/09,21:40,0.947,1.487,0.984,1.783,1.215,0.514,0.946,0.874,�k,5.6,��
2017/08/09,21:50,0.948,1.485,0.985,1.780,1.215,0.514,0.944,0.873,�k,7.1,��
2017/08/09,22:00,0.946,1.485,0.985,1.783,1.217,0.514,0.946,0.873,�k,7.2,��
2017/08/09,22:10,0.948,1.485,0.984,1.779,1.218,0.515,0.945,0.874,�k,4.7,��
2017/08/09,22:20,0.946,1.486,0.985,1.782,1.215,0.514,0.946,0.873,�k�k��,3.5,��
2017/08/09,22:30,0.948,1.486,0.986,1.782,1.217,0.514,0.945,0.871,�k,4.0,��
2017/08/09,22:40,0.945,1.486,0.986,1.782,1.214,0.515,0.946,0.872,�k,4.1,��
2017/08/09,22:50,0.947,1.485,0.985,1.783,1.218,0.515,0.945,0.875,�k,4.1,��
2017/08/09,23:00,0.950,1.486,0.987,1.779,1.216,0.514,0.944,0.874,�k,4.6,��
2017/08/09,23:10,0.951,1.488,0.987,1.783,1.218,0.515,0.944,0.874,�k,3.8,��
2017/08/09,23:20,0.949,1.484,0.985,1.782,1.218,0.514,0.945,0.872,�k,3.8,��
2017/08/09,23:30,0.948,1.486,0.986,1.781,1.218,0.515,0.945,0.874,�k,4.7,��
2017/08/09,23:40,0.949,1.484,0.986,1.782,1.218,0.516,0.945,0.872,�k,3.5,��
2017/08/09,23:50,0.948,1.486,0.985,1.781,1.216,0.512,0.944,0.875,�k,3.2,��
